When you browse on this site, cookies collect data to enhance your experience and personalize the content and advertising you see.
Visit our Privacy Policy to learn more. By continuing to use the site, you agree to this use of cookies and data.
EN

Hourly Weather Aligudarz

Today, 13 August, Thursday

Time Temperature Precipitation Wind Pressure Humidity
00:00 +19°C° 0 mm 1 mps 590 mmHg 42%
01:00 +19°C° 0 mm 1 mps 590 mmHg 44%
02:00 +19°C° 0 mm 1 mps 590 mmHg 46%
03:00 +18°C° 0 mm 1 mps 590 mmHg 48%
04:00 +20°C° 0 mm 1 mps 590 mmHg 45%
05:00 +19°C° 0 mm 0 mps 591 mmHg 41%
06:00 +20°C° 0 mm 0 mps 592 mmHg 37%
07:00 +25°C° 0 mm 1 mps 593 mmHg 31%
08:00 +29°C° 0 mm 1 mps 595 mmHg 24%
09:00 +32°C° 0 mm 1 mps 596 mmHg 18%
10:00 +35°C° 0 mm 2 mps 596 mmHg 15%
11:00 +36°C° 0 mm 3 mps 596 mmHg 13%
12:00 +38°C° 0 mm 4 mps 597 mmHg 11%
13:00 +39°C° 0 mm 5 mps 596 mmHg 11%
14:00 +39°C° 0 mm 6 mps 595 mmHg 11%
15:00 +39°C° 0 mm 6 mps 595 mmHg 11%
16:00 +36°C° 0 mm 6 mps 594 mmHg 14%
17:00 +34°C° 0 mm 5 mps 594 mmHg 17%
18:00 +33°C° 0 mm 4 mps 593 mmHg 20%
19:00 +28°C° 0 mm 3 mps 592 mmHg 25%
20:00 +25°C° 0 mm 2 mps 591 mmHg 30%
21:00 +20°C° 0 mm 0 mps 590 mmHg 36%
22:00 +19°C° 0 mm 0 mps 589 mmHg 37%
23:00 +19°C° 0 mm 0 mps 589 mmHg 38%

Tomorrow, 14 August, Friday

Time Temperature Precipitation Wind Pressure Humidity
00:00 +18°C° 0 mm 0 mps 589 mmHg 40%
01:00 +18°C° 0 mm 0 mps 588 mmHg 41%
02:00 +17°C° 0 mm 0 mps 588 mmHg 43%
03:00 +17°C° 0 mm 0 mps 588 mmHg 44%
04:00 +18°C° 0 mm 0 mps 589 mmHg 41%
05:00 +22°C° 0 mm 1 mps 589 mmHg 37%
06:00 +23°C° 0 mm 1 mps 590 mmHg 34%
07:00 +26°C° 0 mm 1 mps 592 mmHg 28%
08:00 +29°C° 0 mm 1 mps 593 mmHg 22%
09:00 +34°C° 0 mm 2 mps 594 mmHg 16%
10:00 +35°C° 0 mm 3 mps 594 mmHg 14%
11:00 +37°C° 0 mm 4 mps 595 mmHg 12%
12:00 +40°C° 0 mm 5 mps 595 mmHg 11%
13:00 +40°C° 0 mm 6 mps 594 mmHg 11%
14:00 +40°C° 0 mm 7 mps 594 mmHg 11%
15:00 +40°C° 0 mm 8 mps 594 mmHg 11%
16:00 +38°C° 0 mm 6 mps 593 mmHg 13%
17:00 +35°C° 0 mm 5 mps 592 mmHg 15%
18:00 +33°C° 0 mm 3 mps 591 mmHg 17%
19:00 +29°C° 0 mm 2 mps 590 mmHg 21%
20:00 +25°C° 0 mm 1 mps 589 mmHg 25%
21:00 +20°C° 0 mm 0 mps 588 mmHg 30%
22:00 +20°C° 0 mm 0 mps 588 mmHg 31%
23:00 +19°C° 0 mm 0 mps 588 mmHg 32%

Day after tomorrow, 15 August, Saturday

Time Temperature Precipitation Wind Pressure Humidity
00:00 +19°C° 0 mm 0 mps 587 mmHg 33%
01:00 +18°C° 0 mm 0 mps 587 mmHg 33%
02:00 +20°C° 0 mm 1 mps 587 mmHg 34%
03:00 +20°C° 0 mm 1 mps 587 mmHg 34%
04:00 +21°C° 0 mm 1 mps 588 mmHg 32%
05:00 +22°C° 0 mm 1 mps 589 mmHg 31%
06:00 +23°C° 0 mm 1 mps 589 mmHg 29%
07:00 +26°C° 0 mm 1 mps 591 mmHg 24%
08:00 +30°C° 0 mm 1 mps 592 mmHg 19%
09:00 +34°C° 0 mm 2 mps 593 mmHg 15%
10:00 +35°C° 0 mm 3 mps 594 mmHg 13%
11:00 +37°C° 0 mm 5 mps 594 mmHg 12%
12:00 +39°C° 0 mm 6 mps 594 mmHg 10%
13:00 +39°C° 0 mm 6 mps 594 mmHg 10%
14:00 +39°C° 0 mm 7 mps 594 mmHg 10%
15:00 +39°C° 0 mm 7 mps 593 mmHg 10%
16:00 +36°C° 0 mm 6 mps 593 mmHg 11%
17:00 +34°C° 0 mm 5 mps 592 mmHg 12%
18:00 +31°C° 0 mm 3 mps 591 mmHg 14%
19:00 +27°C° 0 mm 2 mps 590 mmHg 18%
20:00 +24°C° 0 mm 1 mps 589 mmHg 22%
21:00 +19°C° 0 mm 0 mps 588 mmHg 27%
22:00 +18°C° 0 mm 0 mps 588 mmHg 28%
23:00 +18°C° 0 mm 0 mps 588 mmHg 28%

16 August, Sunday

Time Temperature Precipitation Wind Pressure Humidity
00:00 +17°C° 0 mm 0 mps 587 mmHg 29%
01:00 +17°C° 0 mm 0 mps 587 mmHg 31%
02:00 +16°C° 0 mm 0 mps 587 mmHg 32%
03:00 +16°C° 0 mm 0 mps 587 mmHg 33%
04:00 +17°C° 0 mm 0 mps 588 mmHg 32%
05:00 +20°C° 0 mm 1 mps 589 mmHg 31%
06:00 +21°C° 0 mm 1 mps 590 mmHg 30%
07:00 +24°C° 0 mm 1 mps 591 mmHg 26%
08:00 +27°C° 0 mm 1 mps 592 mmHg 21%
09:00 +30°C° 0 mm 1 mps 594 mmHg 17%
10:00 +32°C° 0 mm 2 mps 594 mmHg 14%
11:00 +35°C° 0 mm 3 mps 595 mmHg 11%
12:00 +37°C° 0 mm 4 mps 595 mmHg 8%
13:00 +39°C° 0 mm 5 mps 595 mmHg 8%
14:00 +39°C° 0 mm 5 mps 595 mmHg 7%
15:00 +39°C° 0 mm 6 mps 594 mmHg 6%
16:00 +35°C° 0 mm 5 mps 594 mmHg 8%
17:00 +33°C° 0 mm 4 mps 593 mmHg 10%
18:00 +29°C° 0 mm 3 mps 592 mmHg 11%
19:00 +26°C° 0 mm 2 mps 591 mmHg 17%
20:00 +23°C° 0 mm 1 mps 590 mmHg 22%
21:00 +17°C° 0 mm 0 mps 589 mmHg 28%
22:00 +19°C° 0 mm 1 mps 588 mmHg 35%
23:00 +18°C° 0 mm 1 mps 588 mmHg 42%

17 August, Monday

Time Temperature Precipitation Wind Pressure Humidity
00:00 +16°C° 0 mm 1 mps 588 mmHg 49%
01:00 +15°C° 0 mm 0 mps 587 mmHg 54%
02:00 +14°C° 0 mm 0 mps 587 mmHg 59%
03:00 +14°C° 0 mm 0 mps 587 mmHg 64%
04:00 +15°C° 0 mm 0 mps 588 mmHg 57%
05:00 +16°C° 0 mm 0 mps 588 mmHg 50%
06:00 +18°C° 0 mm 0 mps 589 mmHg 44%
07:00 +23°C° 0 mm 1 mps 591 mmHg 37%
08:00 +26°C° 0 mm 1 mps 592 mmHg 30%
09:00 +29°C° 0 mm 1 mps 593 mmHg 23%
10:00 +31°C° 0 mm 1 mps 594 mmHg 18%
11:00 +34°C° 0 mm 2 mps 594 mmHg 13%
12:00 +36°C° 0 mm 2 mps 594 mmHg 8%
13:00 +36°C° 0 mm 3 mps 594 mmHg 7%
14:00 +37°C° 0 mm 4 mps 594 mmHg 6%
15:00 +37°C° 0 mm 5 mps 594 mmHg 5%
16:00 +35°C° 0 mm 4 mps 593 mmHg 8%
17:00 +31°C° 0 mm 3 mps 592 mmHg 11%
18:00 +28°C° 0 mm 2 mps 590 mmHg 14%
19:00 +25°C° 0 mm 2 mps 590 mmHg 22%
20:00 +23°C° 0 mm 2 mps 589 mmHg 29%
21:00 +20°C° 0 mm 1 mps 589 mmHg 37%
22:00 +20°C° 0 mm 1 mps 588 mmHg 41%
23:00 +19°C° 0 mm 1 mps 588 mmHg 44%

18 August, Tuesday

Time Temperature Precipitation Wind Pressure Humidity
00:00 +19°C° 0 mm 1 mps 588 mmHg 48%
01:00 +18°C° 0 mm 1 mps 588 mmHg 52%
02:00 +18°C° 0 mm 1 mps 588 mmHg 55%
03:00 +18°C° 0 mm 1 mps 588 mmHg 59%
04:00 +18°C° 0 mm 1 mps 589 mmHg 55%
05:00 +19°C° 0 mm 1 mps 589 mmHg 52%
06:00 +19°C° 0 mm 2 mps 590 mmHg 48%
07:00 +23°C° 0 mm 2 mps 591 mmHg 41%
08:00 +25°C° 0 mm 2 mps 592 mmHg 34%
09:00 +28°C° 0 mm 3 mps 593 mmHg 27%
10:00 +30°C° 0 mm 3 mps 594 mmHg 22%
11:00 +34°C° 0 mm 3 mps 594 mmHg 17%
12:00 +36°C° 0 mm 3 mps 594 mmHg 12%
13:00 +36°C° 0 mm 3 mps 594 mmHg 12%
14:00 +36°C° 0 mm 4 mps 594 mmHg 12%
15:00 +36°C° 0 mm 5 mps 593 mmHg 11%
16:00 +34°C° 0 mm 4 mps 592 mmHg 13%
17:00 +31°C° 0 mm 3 mps 591 mmHg 15%
18:00 +28°C° 0 mm 3 mps 591 mmHg 17%
19:00 +26°C° 0 mm 2 mps 590 mmHg 25%
20:00 +23°C° 0 mm 1 mps 589 mmHg 33%
21:00 +20°C° 0 mm 1 mps 588 mmHg 40%
22:00 +19°C° 0 mm 1 mps 588 mmHg 42%
23:00 +18°C° 0 mm 1 mps 588 mmHg 43%
Show more